Notices

What's New in latest Release from April 7th, 2021:

- Updated Glossary, including Speed of Maximum Gust, and Total Hourly Precipitation

- Updated national and regional climate services offices contacts and prices information

- Addition of station inventory lists for 1981-2010, 1971-2000, and 1961-1990 Normals.

If you haven't already, please take our survey and provide feedback about our website: https://eccc.sondage-survey.ca/f/LanguageSelection.aspx?s=442ca660-fcf1-47c0-95a9-59707d6fd709

Hourly Data Report for April 02, 2021

KENORA A
ONTARIO
Current Station Operator: NAVCAN

49°47'18.000" N
94°21'47.000" W
409.70 m
6034076
71850
YQK

Download Data

Hourly Data (April 2021)
Hourly Data Report for April 2, 2021
TIME
LST
Temp Definition
°C
Dew Point Definition
°C
Rel Hum Definition
%
Precip. Amount Definition
mm

Wind Dir Definition
10's deg

Wind Spd Definition
km/h
Visibility Definition
km
Stn Press Definition
kPa
Hmdx Definition


Wind Chill Definition


Weather Definition


00:00 1.5 -11.0 39   18 25 32.2 96.94     Clear
01:00 1.4 -10.9 40   17 27 32.2 96.88     LegendNANA
02:00 1.7 -10.3 41   17 27 32.2 96.80     LegendNANA
03:00 1.8 -10.2 41   17 30 32.2 96.70     Mainly Clear
04:00 1.5 -10.1 42   17 27 32.2 96.63     LegendNANA
05:00 1.0 -10.2 43   17 23 32.2 96.55     LegendNANA
06:00 1.1 -10.0 43   17 22 32.2 96.49     Mostly Cloudy
07:00 2.0 -9.5 42   18 25 32.2 96.45     LegendNANA
08:00 3.1 -8.9 41   17 28 32.2 96.38     LegendNANA
09:00 5.0 -8.0 39   18 29 32.2 96.30     Mostly Cloudy
10:00 6.7 -7.0 37   19 32 32.2 96.26     LegendNANA
11:00 7.2 -6.5 37   19 35 24.1 96.22     LegendNANA
12:00 7.9 -6.2 36   18 32 24.1 96.17     Cloudy
13:00 8.2 -6.0 36   18 29 32.2 96.10     LegendNANA
14:00 9.2 -5.8 34   18 24 24.1 96.07     LegendNANA
15:00 9.8 -4.6 36   22 17 24.1 96.09     Cloudy
16:00 9.8 -4.8 35   19 17 24.1 96.11     LegendNANA
17:00 10.4 -4.6 34   19 14 32.2 96.11     LegendNANA
18:00 10.8 -3.6 36   21 13 32.2 96.14     Mostly Cloudy
19:00 9.1 -3.1 42   21 9 32.2 96.18     LegendNANA
20:00 7.0 -2.9 50   24 7 32.2 96.24     LegendNANA
21:00 7.3 -2.7 49   24 6 32.2 96.29     Mainly Clear
22:00 7.1 -3.6 46   32 19 32.2 96.37     LegendNANA
23:00 5.5 -4.0 50   33 15 32.2 96.43     LegendNANA

Notes on Data Quality.

Legend

  • E = Estimated
  • M = Missing
  • NA = Not Available*
  • [empty] = Indicates an unobserved value
Date modified: